Ely, MN

12:26 AM CDT on April 30, 2017 (GMT -0500)
Ely Municipal

Weather History for KELO - October, 2012

Change the Weather History Date:

Wednesday, October 17, 2012

  Actual Average Record
Temperature  
Mean Temperature 45 °F -  
Max Temperature 53 °F 48 °F 69 °F (1998)
Min Temperature 37 °F 32 °F 19 °F (2002)
Degree Days  
Heating Degree Days 20    
Moisture  
Dew Point 44 °F    
Average Humidity 89    
Maximum Humidity 100    
Minimum Humidity 76    
Precipitation  
Precipitation 0.03 in - - ()
Sea Level Pressure  
Sea Level Pressure 29.24 in    
Wind  
Wind Speed 5 mph (SE)    
Max Wind Speed 14 mph    
Max Gust Speed 23 mph    
Visibility 9 miles    
Events Rain    
Averages and records for this station are not official NWS values.
T = Trace of Precipitation, MM = Missing Value Source: NWS Daily Summary

Daily Weather History Graph

Daily Weather History Graph

Search for Another Location

Airport or City:

Trip Planner

Search our weather history database for the weather conditions in past years. The results will help you decide how hot, cold, wet, or windy it might be!

Date:

Astronomy

Oct. 17, 2012 Rise Set
Actual Time 7:30 AM CDT 6:14 PM CDT
Civil Twilight 6:58 AM CDT 6:45 PM CDT
Nautical Twilight 6:22 AM CDT 7:21 PM CDT
Astronomical Twilight 5:47 AM CDT 7:57 PM CDT
Moon 10:18 AM CDT (10/17) 7:36 PM CDT (10/17)
Length of Visible Light 11h 46m
Length of Day
10h 44m
Waxing Crescent, 7% of the Moon is Illuminated
Oct 17
Waxing Crescent
Oct 21
First Quarter
Oct 29
Full
Nov 6
Last Quarter
Nov 13
New

Hourly Weather History & Observations

Time (CDT) Temp. Windchill Dew Point Humidity Pressure Visibility Wind Dir Wind Speed Gust Speed Precip Events Conditions
12:13 AM 44.6 °F 41.4 °F 42.8 °F 93% 29.39 in 10.0 mi SSE 5.8 mph - N/A   Clear
12:32 AM 46.4 °F 44.3 °F 42.8 °F 87% 29.38 in 10.0 mi SSE 4.6 mph - N/A   Clear
12:53 AM 46.4 °F 44.3 °F 44.6 °F 93% 29.37 in 10.0 mi SSE 4.6 mph - N/A   Clear
1:13 AM 46.4 °F 44.3 °F 44.6 °F 93% 29.36 in 10.0 mi SSE 4.6 mph - N/A   Clear
1:32 AM 48.2 °F - 44.6 °F 87% 29.36 in 10.0 mi Calm Calm - N/A   Clear
1:53 AM 42.8 °F - 42.8 °F 100% 29.36 in 10.0 mi Calm Calm - N/A   Clear
2:13 AM 42.8 °F - 41.0 °F 93% 29.36 in 10.0 mi Calm Calm - N/A   Clear
2:32 AM 42.8 °F - 39.2 °F 87% 29.36 in 10.0 mi Calm Calm - N/A   Clear
2:53 AM 42.8 °F - 41.0 °F 93% 29.35 in 10.0 mi Calm Calm - N/A   Clear
3:13 AM 42.8 °F - 39.2 °F 87% 29.35 in 10.0 mi Calm Calm - N/A   Clear
3:33 AM 42.8 °F - 39.2 °F 87% 29.34 in 10.0 mi Calm Calm - N/A   Clear
3:53 AM 39.2 °F - 39.2 °F 100% 29.33 in 7.0 mi Calm Calm - N/A   Clear
4:13 AM 39.2 °F - 39.2 °F 100% 29.33 in 7.0 mi Calm Calm - N/A   Clear
4:33 AM 39.2 °F - 37.4 °F 93% 29.33 in 10.0 mi Calm Calm - N/A   Clear
4:53 AM 39.2 °F - 37.4 °F 93% 29.33 in 10.0 mi Calm Calm - N/A   Clear
5:13 AM 37.4 °F - 37.4 °F 100% 29.34 in 7.0 mi Calm Calm - N/A   Clear
5:33 AM 37.4 °F - 37.4 °F 100% 29.34 in 10.0 mi Calm Calm - N/A   Clear
5:53 AM 39.2 °F - 37.4 °F 93% 29.33 in 10.0 mi Calm Calm - N/A   Clear
6:13 AM 37.4 °F 34.9 °F 35.6 °F 93% 29.33 in 10.0 mi ESE 3.5 mph - N/A   Clear
6:32 AM 39.2 °F 35.9 °F 39.2 °F 100% 29.32 in 7.0 mi East 4.6 mph - N/A   Clear
6:53 AM 42.8 °F 40.1 °F 41.0 °F 93% 29.31 in 10.0 mi East 4.6 mph - N/A   Clear
7:13 AM 41.0 °F - 39.2 °F 93% 29.30 in 7.0 mi Calm Calm - N/A   Clear
7:32 AM 39.2 °F - 39.2 °F 100% 29.30 in 7.0 mi Calm Calm - N/A   Scattered Clouds
7:53 AM 39.2 °F - 39.2 °F 100% 29.29 in 2.5 mi Calm Calm - N/A   Mostly Cloudy
8:13 AM 44.6 °F 42.2 °F 42.8 °F 93% 29.28 in 10.0 mi East 4.6 mph - N/A   Overcast
8:32 AM 44.6 °F 40.7 °F 42.8 °F 93% 29.27 in 10.0 mi East 6.9 mph - N/A   Mostly Cloudy
8:53 AM 46.4 °F 43.5 °F 42.8 °F 87% 29.28 in 10.0 mi ESE 5.8 mph - N/A   Mostly Cloudy
9:12 AM 46.4 °F 41.9 °F 42.8 °F 87% 29.27 in 10.0 mi East 9.2 mph - N/A   Overcast
9:33 AM 46.4 °F 41.9 °F 44.6 °F 93% 29.25 in 10.0 mi East 9.2 mph - N/A   Overcast
9:53 AM 46.4 °F 43.5 °F 44.6 °F 93% 29.24 in 10.0 mi East 5.8 mph - N/A   Overcast
10:12 AM 48.2 °F - 44.6 °F 87% 29.24 in 10.0 mi ESE 5.8 mph - N/A   Mostly Cloudy
10:33 AM 51.8 °F - 44.6 °F 76% 29.23 in 10.0 mi East 6.9 mph - N/A   Scattered Clouds
10:53 AM 51.8 °F - 46.4 °F 82% 29.22 in 10.0 mi East 10.4 mph - N/A   Clear
11:12 AM 53.6 °F - 46.4 °F 77% 29.22 in 10.0 mi ESE 9.2 mph - N/A   Scattered Clouds
11:33 AM 53.6 °F - 46.4 °F 77% 29.22 in 10.0 mi ESE 9.2 mph - N/A   Mostly Cloudy
11:53 AM 53.6 °F - 46.4 °F 77% 29.22 in 10.0 mi SE 9.2 mph - N/A   Overcast
12:12 PM 51.8 °F - 46.4 °F 82% 29.21 in 10.0 mi ESE 10.4 mph - N/A   Mostly Cloudy
12:33 PM 50.0 °F - 46.4 °F 87% 29.19 in 10.0 mi East 8.1 mph - N/A Rain Light Rain
12:53 PM 51.8 °F - 46.4 °F 82% 29.18 in 10.0 mi East 9.2 mph 16.1 mph N/A   Scattered Clouds
1:13 PM 51.8 °F - 46.4 °F 82% 29.17 in 10.0 mi ESE 11.5 mph - N/A   Scattered Clouds
1:33 PM 51.8 °F - 46.4 °F 82% 29.15 in 10.0 mi East 10.4 mph - N/A   Mostly Cloudy
1:53 PM 51.8 °F - 46.4 °F 82% 29.14 in 10.0 mi East 13.8 mph 21.9 mph N/A   Scattered Clouds
2:13 PM 51.8 °F - 46.4 °F 82% 29.12 in 10.0 mi East 13.8 mph 20.7 mph N/A   Scattered Clouds
2:33 PM 51.8 °F - 46.4 °F 82% 29.11 in 10.0 mi East 12.7 mph 23.0 mph N/A   Mostly Cloudy
2:52 PM 51.8 °F - 46.4 °F 82% 29.12 in 10.0 mi ESE 13.8 mph 21.9 mph N/A   Mostly Cloudy
3:13 PM 51.8 °F - 46.4 °F 82% 29.14 in 10.0 mi SE 12.7 mph - N/A   Overcast
3:33 PM 51.8 °F - 46.4 °F 82% 29.15 in 10.0 mi SE 6.9 mph - N/A   Mostly Cloudy
3:53 PM 51.8 °F - 46.4 °F 82% 29.15 in 7.0 mi SE 13.8 mph 17.3 mph N/A Rain Light Rain
4:13 PM 51.8 °F - 48.2 °F 88% 29.16 in 7.0 mi SE 10.4 mph - N/A Rain Light Rain
4:32 PM 50.0 °F - 48.2 °F 94% 29.15 in 7.0 mi ESE 6.9 mph - 0.01 in Rain Light Rain
4:53 PM 50.0 °F - 48.2 °F 94% 29.15 in 5.0 mi ESE 8.1 mph - 0.02 in Rain Light Rain
5:13 PM 51.8 °F - 48.2 °F 88% 29.15 in 5.0 mi ESE 11.5 mph - N/A   Overcast
5:32 PM 51.8 °F - 48.2 °F 88% 29.15 in 7.0 mi ESE 10.4 mph - N/A   Overcast
5:53 PM 51.8 °F - 48.2 °F 88% 29.15 in 7.0 mi SE 10.4 mph - N/A   Overcast
6:13 PM 51.8 °F - 48.2 °F 88% 29.16 in 4.0 mi SE 11.5 mph 16.1 mph N/A Rain Light Rain
6:32 PM 51.8 °F - 48.2 °F 88% 29.17 in 5.0 mi SE 10.4 mph - N/A Rain Light Rain
6:53 PM 51.8 °F - 48.2 °F 88% 29.18 in 7.0 mi SE 10.4 mph - 0.01 in   Overcast
7:13 PM 51.8 °F - 48.2 °F 88% 29.18 in 7.0 mi SE 6.9 mph - N/A   Overcast
7:32 PM 51.8 °F - 48.2 °F 88% 29.18 in 10.0 mi SE 8.1 mph - N/A   Overcast
7:53 PM 51.8 °F - 48.2 °F 88% 29.19 in 10.0 mi SSE 9.2 mph - N/A   Overcast
8:13 PM 51.8 °F - 48.2 °F 88% 29.20 in 10.0 mi SSE 8.1 mph - N/A   Overcast
8:32 PM 51.8 °F - 48.2 °F 88% 29.20 in 10.0 mi SSE 8.1 mph - N/A   Overcast
8:53 PM 51.8 °F - 48.2 °F 88% 29.21 in 10.0 mi SSE 5.8 mph - N/A   Overcast
9:13 PM 51.8 °F - 48.2 °F 88% 29.22 in 10.0 mi South 10.4 mph - N/A   Overcast
9:33 PM 51.8 °F - 46.4 °F 82% 29.22 in 10.0 mi South 5.8 mph - N/A   Overcast
9:53 PM 50.0 °F - 46.4 °F 87% 29.21 in 10.0 mi South 3.5 mph - N/A   Overcast
10:12 PM 50.0 °F - 46.4 °F 87% 29.22 in 10.0 mi South 3.5 mph - N/A   Overcast
10:33 PM 50.0 °F - 46.4 °F 87% 29.22 in 10.0 mi South 4.6 mph - N/A   Overcast
10:53 PM 50.0 °F - 46.4 °F 87% 29.22 in 10.0 mi South 4.6 mph - N/A   Overcast
11:12 PM 48.2 °F - 46.4 °F 93% 29.22 in 10.0 mi SSE 3.5 mph - N/A   Overcast
11:33 PM 48.2 °F - 46.4 °F 93% 29.21 in 10.0 mi SSE 3.5 mph - N/A   Overcast
11:53 PM 48.2 °F - 46.4 °F 93% 29.21 in 10.0 mi SE 3.5 mph - N/A   Overcast